Weather Roundup
Issued by NWS

Home | Current Version | Previous Version | Graphics & Text | Print | Product List | Glossary Off
Versions: 1 2 3 4 5 6 7 8 9 10 11 12 13 14 15 16 17 18 19 20 21 22 23 24 25 26 27 28 29 30 31 32 33 34 35 36 37 38 39 40 41 42 43 44 45 46 47 48 49 50

000
NZUS93 KARX 171010
HRRWXR

CURRENT HOURLY OBSERVATIONS ACROSS
MUCH OF THE UPPER MISSISSIPPI VALLEY
NATIONAL WEATHER SERVICE LA CROSSE WI
500 AM CDT WED SEP 17 2014


...SOUTHEAST MINNESOTA...


CITY           SKY/WX    TMP DP  RH WIND       PRES   REMARKS
ROCHESTER      CLOUDY    49  46  90 S6        29.99F
ROCHESTER/MAYO CLOUDY    54  44  69 S5        29.99S
WINONA         CLOUDY    48  48 100 CALM      29.99F
AUSTIN         CLOUDY    48  45  87 S3        29.98F
ALBERT LEA     CLOUDY    54  48  82 S6        29.97F
DODGE CENTER   MOCLDY    52  46  82 S7        29.98S
PRESTON        MOCLDY    48  47  95 SW3       30.00F
OWATONNA       CLOUDY    54  46  76 S5        29.97F
FARIBAULT      MOCLDY    55  46  71 S3        29.97S
$$

...ELSEWHERE IN MINNESOTA...


CITY           SKY/WX    TMP DP  RH WIND       PRES   REMARKS
MINNEAPOLIS    CLOUDY    58  47  66 SW5       29.95F
INTNL FALLS    CLOUDY    50  45  83 SW5       29.89F
DULUTH         PTCLDY    48  41  76 W5        29.92F
RED WING       CLOUDY    54  48  82 CALM      29.96S
REDWOOD FALLS  CLOUDY    55  51  86 S6        29.92F
MANKATO        MOCLDY    52  45  76 S6        29.96F
WORTHINGTON    CLEAR     52  46  82 S5        29.95F
FAIRMONT       MOCLDY    52  45  76 S5        29.96F
$$

...SOUTHWEST WISCONSIN...


CITY           SKY/WX    TMP DP  RH WIND       PRES   REMARKS
LA CROSSE      CLOUDY    49  46  90 SE6       30.00F FOG
PRAIRIE DU CHI DRZL/FOG  44  43  97 CALM      30.03S VSB 1/4
BOSCOBEL       FOG       46  45  96 CALM      30.04S VSB 1/4
LONE ROCK      HAZE      45  40  82 CALM      30.04S VSB 1/4
PLATTEVILLE    CLEAR     45  42  90 CALM      30.04S
FORT MC COY    FOG       35  35 100 CALM      30.02F VSB 1/2
CAMP DOUGLAS   CLEAR     39  39 100 E2        30.01F
VIROQUA        FAIR      47  46  95 S5        30.02S
WIS DELLS      CLEAR     42  40  94 CALM      30.02S
$$

...ELSEWHERE IN WISCONSIN...


CITY           SKY/WX    TMP DP  RH WIND       PRES   REMARKS
MILWAUKEE      CLEAR     49  43  80 CALM      30.04S
MADISON        MOCLDY    40  39  97 CALM      30.03S FOG
GREEN BAY      CLEAR     43  41  93 CALM      30.01S
EAU CLAIRE     MOCLDY    43  42  97 CALM      29.97F
BLACK RVR FLS  PTSUNNY   34  34 100 CALM      30.00F FOG
MEDFORD        CLEAR     40  39  95 CALM      29.98F
WAUSAU         CLEAR     41  40  96 E5        29.99F
WIS RAPIDS     CLEAR     39  38  96 CALM      30.02F
MARSHFIELD     CLEAR     43  40  89 CALM      29.99F
RICE LAKE      CLOUDY    40  40  98 CALM      29.98F FOG
$$

...NORTHEAST IOWA...


CITY           SKY/WX    TMP DP  RH WIND       PRES   REMARKS
WATERLOO       CLOUDY    49  47  93 E6        30.00F
DUBUQUE        CLOUDY    46  43  89 CALM      30.04R
DECORAH        MOCLDY    48  45  87 CALM      30.00F
MASON CITY     CLOUDY    49  47  93 S5        30.00F
CHARLES CITY   CLEAR     46  45  93 SE5       30.00F
OELWEIN        CLOUDY    46  46 100 E5        30.02F
$$

...ELSEWHERE IN IOWA...


CITY           SKY/WX    TMP DP  RH WIND       PRES   REMARKS
DES MOINES     CLOUDY    56  50  80 S7        29.98F
IOWA CITY      PTCLDY    47  46  97 CALM      30.04S
FORT DODGE     PTCLDY    48  45  87 CALM      29.98S
MARSHALLTOWN   PTCLDY    50  47  89 S6        29.99F
CEDAR RAPIDS   CLOUDY    49  48  97 SE3       30.01F
$$

...NORTHERN ILLINOIS...


CITY           SKY/WX    TMP DP  RH WIND       PRES   REMARKS
CHICAGO-OHARE  PTCLDY    50  44  80 CALM      30.04F
DUPAGE         CLEAR     43  41  93 CALM      30.04F FOG
CHICAGO-MIDWAY PTCLDY    51  46  83 S3        30.05F
MOLINE         PTCLDY    46  43  89 CALM      30.04S
ROCKFORD       CLEAR     43  40  89 CALM      30.06F
STERLING       PTCLDY    43  37  81 CALM      30.05S
PEORIA         PTCLDY    49  46  90 CALM      30.05F
$$

NOTE: "FAIR" INDICATES FEW OR NO CLOUDS BELOW 12,000 FEET WITH NO
SIGNIFICANT WEATHER AND/OR OBSTRUCTIONS TO VISIBILITY. WIND
SPEEDS ARE IN MILES-PER-HOUR.



USA.gov is the U.S. government's official web portal to all federal, state and local government web resources and services.